sat.trackr.live / text

‹ back to catalog

STARLINK-36830

NORAD 68110 · 2026-044K

PAYLOAD ACTIVE UNKNOWN

§ Identity

Operator
Country
US
Launch date
2026-03-08
Launch site
AFWTR
Launch vehicle
Mass (kg)
RCS (m²)

Purposes: comms

External: N2YO · Heavens-Above · Gunter

§ Orbital elements

Epoch: 2026-09-20T03:49:14.182752Z

Period
93.91 min
Inclination
97.2858°
Eccentricity
0.0001899
Mean motion
15.33458583 rev/d
Perigee alt
464.2 km
Apogee alt
466.8 km
Semi-major
6,843.6 km
B*
5.3202e-4
RAAN
222.0871°
Arg perigee
93.9366°
Mean anomaly
266.2094°
Rev number
3,138

§ Raw data

STARLINK-368301 68110U 26044K   26263.15919193  .00017147  00000+0  53202-3 0  99932 68110  97.2858 222.0871 0001899  93.9366 266.2094 15.33458583 31381

JSON: /api/v1/satellites/68110 · /tle

For live sub-satellite position, see the globe view (requires WebGL).

§ Visibility from observer

Set your observer location to see the next 7 days of passes ≥ 10°. The values pass through the URL so the page stays shareable.

No JS? Fill the form by hand. The geolocation button needs JavaScript.